"TOA5","AWS1","CR1000","7964","CR1000.Std.14","CPU:AWS1_114.CR1","64363","TBL110"
"TIMESTAMP","RECORD","Wind_spd_WVc(1)","Wind_spd_WVc(2)","Air_Temp_Avg","Humidity_Avg","SW_upper_Wm2_Avg","Rain_Tot","Press_Avg","Issui_Tot","Depth_cm","SR50A_Raw","Quality","Ground_Temp_Avg(1)","Ground_Temp_Avg(2)","SW_lower_Wm2_Avg","Albedo_Avg","SWC_per(1)","SWC_per(2)","Period(1)","Period(2)"
"TS","RN","","","","","","","","","","","","","","","","","","",""
"","","WVc","WVc","Avg","Avg","Avg","Tot","Avg","Tot","Smp","Smp","Smp","Avg","Avg","Avg","Avg","Smp","Smp","Smp","Smp"
"2017-07-20 00:00:00",297565,0.013,157.6,17.47,100,0,0,866.0645,0,5.097,3.034,235,22.04,20.59,0.2273681,0,48,55.6,32.8,34.65
"2017-07-20 00:10:00",297566,0.126,176.7,17.39,100,0,0,866.0754,0,4.993,3.035,230,21.9,20.58,0.1553684,0,48,55.55,32.8,34.64
"2017-07-20 00:20:00",297567,0.082,198.3,17.43,100,0,0,866.0648,0,5.081,3.033,234,21.93,20.6,0.2576873,0,47.95,55.6,32.78,34.65
"2017-07-20 00:30:00",297568,0,0,17.62,100,0,0,866.0155,0,5.115,3.032,229,21.91,20.6,0.4888447,0,48,55.55,32.8,34.64
"2017-07-20 00:40:00",297569,0.057,146.2,17.79,100,0,0,865.8069,0,5.171,3.031,234,21.84,20.63,0.549477,0,47.95,55.6,32.78,34.65
"2017-07-20 00:50:00",297570,0.033,126.4,17.8,100,0,0,865.804,0,5.012,3.033,226,21.81,20.65,0.4054739,0,47.95,55.55,32.78,34.64
"2017-07-20 01:00:00",297571,0.018,127.2,17.78,100,0,0,865.7643,0,4.964,3.033,230,21.81,20.66,0.3562135,0,48,55.55,32.8,34.64
"2017-07-20 01:10:00",297572,0,0,17.77,100,0,0,865.6644,0,4.907,3.034,232,21.77,20.66,0.1098962,0,48,55.55,32.8,34.64
"2017-07-20 01:20:00",297573,0.024,126,17.62,100,0,0,865.5598,0,4.991,3.035,238,21.72,20.67,0.04547442,0,47.95,55.55,32.78,34.64
"2017-07-20 01:30:00",297574,0.035,99.5,17.39,100,0,0,865.5519,0,4.578,3.039,223,21.71,20.67,0.007579082,0,48,55.55,32.8,34.64
"2017-07-20 01:40:00",297575,0.008,14.74,17.25,100,0,0,865.5439,0,5.038,3.035,241,21.71,20.66,0.03031633,0,47.95,55.55,32.78,34.64
"2017-07-20 01:50:00",297576,0,0,17.44,100,0,0,865.5532,0,4.887,3.036,241,21.66,20.66,0.4964299,0,47.95,55.55,32.78,34.64
"2017-07-20 02:00:00",297577,0,0,17.44,100,0,0,865.6858,0,4.578,3.039,235,21.7,20.67,0.5835893,0,47.95,55.55,32.78,34.64
"2017-07-20 02:10:00",297578,0,0,17,100,0,0,865.567,0,4.392,3.044,235,21.7,20.66,0.08715944,0,47.95,55.49,32.78,34.63
"2017-07-20 02:20:00",297579,0.054,178.7,16.65,100,0,0,865.5453,0,4.415,3.044,244,21.61,20.66,0.06821174,0,48,55.49,32.8,34.63
"2017-07-20 02:30:00",297580,0,0,16.73,100,0,0,865.5585,0,4.12,3.048,237,21.6,20.65,0.3941123,0,48,55.49,32.8,34.63
"2017-07-20 02:40:00",297581,0.225,195.8,16.46,100,0,0,865.6741,0,4.12,3.048,234,21.55,20.66,0.1970561,0,47.95,55.49,32.78,34.63
"2017-07-20 02:50:00",297582,0.028,206.4,16.61,100,0,0,865.8206,0,4.209,3.046,246,21.49,20.68,0.5381148,0,48,55.49,32.8,34.63
"2017-07-20 03:00:00",297583,0.006,206.2,16.43,100,0,0,865.838,0,4.547,3.045,265,21.52,20.66,0.2084248,0,48,55.49,32.8,34.63
"2017-07-20 03:10:00",297584,0.124,187.1,16.23,100,0,0,865.9502,0,4.094,3.051,246,21.47,20.64,0.2538992,0,47.95,55.49,32.78,34.63
"2017-07-20 03:20:00",297585,0.193,190.4,16.02,100,0,0,866.0447,0,3.992,3.052,249,21.41,20.65,0.280426,0,48,55.49,32.8,34.63
"2017-07-20 03:30:00",297586,0.155,191.3,16,100,0,0,866.115,0,4.347,3.049,259,21.39,20.66,0.4547449,0,48,55.49,32.8,34.63
"2017-07-20 03:40:00",297587,0.128,201.6,16.01,100,0.1257691,0,866.2449,0,4.421,3.046,259,21.36,20.65,0.6290638,0.771,47.95,55.49,32.78,34.63
"2017-07-20 03:50:00",297588,0.076,197.7,16.42,100,0.5109369,0,866.3636,0,4.303,3.046,253,21.32,20.66,0.9701225,2.135,48,55.49,32.8,34.63
"2017-07-20 04:00:00",297589,0.014,178.2,16.59,100,0.2554684,0,866.3484,0,4.041,3.049,252,21.34,20.65,0.7730663,0.913,47.95,55.49,32.78,34.63
"2017-07-20 04:10:00",297590,0.015,178.2,16.68,100,0.2947713,0,866.3323,0,4.251,3.044,255,21.29,20.65,0.8450676,1.468,48,55.43,32.8,34.61
"2017-07-20 04:20:00",297591,0,0,17.2,100,0.4048192,0,866.333,0,4.373,3.041,263,21.25,20.66,1.189916,3.059,47.95,55.43,32.78,34.61
"2017-07-20 04:30:00",297592,0.222,137.8,17.24,99.8,0.01572113,0,866.5142,0,4.044,3.046,254,21.24,20.66,0.8564362,0.321,47.95,55.43,32.78,34.61
"2017-07-20 04:40:00",297593,0.181,213,17,100,0,0,866.5703,0,4.044,3.046,251,21.24,20.66,0.4547449,0,47.95,55.43,32.78,34.61
"2017-07-20 04:50:00",297594,0.127,236.2,17.16,100,0.4166101,0,866.5908,0,4.315,3.042,258,21.19,20.67,0.7086442,1.414,47.95,55.43,32.78,34.61
"2017-07-20 05:00:00",297595,0.069,212.5,17.46,98.9,0.9865011,0,866.6486,0,4.072,3.043,245,21.14,20.67,0.9094898,0.931,48,55.43,32.8,34.61
"2017-07-20 05:10:00",297596,0,0,17.64,96.5,1.866884,0,866.806,0,4.335,3.04,251,21.12,20.67,0.9966487,0.542,48,55.43,32.8,34.61
"2017-07-20 05:20:00",297597,0,0,17.61,97.3,1.965071,0,866.9296,0,4.644,3.038,241,21.11,20.65,0.8601982,0.453,48,55.43,32.8,34.61
"2017-07-20 05:30:00",297598,0,0,17.38,100,4.598172,0,867.0559,0,4.632,3.039,234,21.09,20.63,0.9056486,0.202,48,55.43,32.8,34.61
"2017-07-20 05:40:00",297599,0.019,209.3,17.32,100,7.482999,0,867.0667,0,4.767,3.037,240,21.07,20.65,1.273241,0.17,47.95,55.43,32.78,34.61
"2017-07-20 05:50:00",297600,0.003,209.3,17.53,99.9,16.5339,0,867.0643,0,5.041,3.033,234,21.01,20.65,2.89507,0.175,47.95,55.43,32.78,34.61
"2017-07-20 06:00:00",297601,0,0,17.79,96.6,25.7108,0,867.0627,0,4.969,3.033,236,21.02,20.64,4.323678,0.169,47.95,55.43,32.78,34.61
"2017-07-20 06:10:00",297602,0,0,17.9,96.8,45.79343,0,867.0685,0,4.467,3.037,243,21.05,20.64,6.817053,0.149,47.95,55.43,32.78,34.61
"2017-07-20 06:20:00",297603,0,0,17.9,98.8,74.14175,0,867.0896,0,2.72,3.054,252,21,20.62,10.56804,0.143,47.95,55.37,32.78,34.6
"2017-07-20 06:30:00",297604,0.079,158.5,17.87,100,93.05694,0,867.0623,0,3.294,3.048,258,20.98,20.56,14.0081,0.149,47.95,55.37,32.78,34.6
"2017-07-20 06:40:00",297605,0.034,105.3,18.45,93.3,127.8976,0,867.1085,0,4.367,3.034,246,20.98,20.58,28.107,0.219,48,55.37,32.8,34.6
"2017-07-20 06:50:00",297606,0.145,94.7,18.92,86.8,164.3196,0,867.2791,0,4.229,3.034,267,20.97,20.59,29.81532,0.181,48,55.37,32.8,34.6
"2017-07-20 07:00:00",297607,0.226,18.1,18.99,84.2,139.6281,0,867.3148,0,3.61,3.04,251,20.96,20.56,19.32731,0.138,47.95,55.37,32.78,34.6
"2017-07-20 07:10:00",297608,0.002,283.2,19.1,84.5,105.636,0,867.378,0,3.979,3.036,472,20.92,20.5,14.05303,0.132,48,55.37,32.8,34.6
"2017-07-20 07:20:00",297609,0.041,4.991,19.04,85.1,152.2907,0,867.5674,0,-2.72,3.099,201,20.87,20.45,31.20037,0.196,47.95,55.37,32.78,34.6
"2017-07-20 07:30:00",297610,0.049,17.34,19.68,82.5,171.0768,0,867.5948,0,1.947,3.053,251,20.87,20.43,28.43009,0.164,47.95,55.37,32.78,34.6
"2017-07-20 07:40:00",297611,0.585,8.5,19.42,82.7,170.2035,0,867.5674,0,2.04,3.053,237,20.86,20.43,32.85125,0.192,48,55.37,32.8,34.6
"2017-07-20 07:50:00",297612,0.179,19.6,19.47,84.5,203.3674,0,867.5696,0,2.652,3.046,225,20.86,20.43,34.47285,0.169,47.95,55.37,32.78,34.6
"2017-07-20 08:00:00",297613,0.732,36.38,19.62,81.9,371.437,0,867.5674,0,3.679,3.035,251,20.85,20.42,46.96251,0.13,47.95,55.37,32.78,34.6
"2017-07-20 08:10:00",297614,0.139,211.1,20.23,79.27,490.6591,0,867.5674,0,3.829,3.03,268,20.84,20.41,62.35666,0.127,47.95,55.37,32.78,34.6
"2017-07-20 08:20:00",297615,0.172,11.82,20.57,76.88,544.2254,0,867.437,0,3.387,3.032,257,20.82,20.4,77.52441,0.142,48,55.37,32.8,34.6
"2017-07-20 08:30:00",297616,0.279,75.48,20.92,75.02,630.1581,0,867.3148,0,3.768,3.027,444,20.76,20.37,94.46276,0.15,47.95,55.37,32.78,34.6
"2017-07-20 08:40:00",297617,0.26,142.7,21.27,74.39,670.4526,0,867.3127,0,3.191,3.031,241,20.75,20.35,101.4546,0.151,47.95,55.32,32.78,34.59
"2017-07-20 08:50:00",297618,0.213,48.5,21.73,72.72,696.1734,0,867.3148,0,3.318,3.028,269,20.73,20.36,102.9197,0.148,48,55.32,32.8,34.59
"2017-07-20 09:00:00",297619,0.477,134.4,21.88,70.43,736.8356,0,867.3085,0,3.422,3.025,240,20.71,20.36,110.0224,0.149,48,55.32,32.8,34.59
"2017-07-20 09:10:00",297620,0.732,136.2,21.95,68.63,758.6719,0,867.1612,0,3.469,3.025,230,20.72,20.35,116.0001,0.153,47.95,55.32,32.78,34.59
"2017-07-20 09:20:00",297621,0.416,113.3,22.47,66.01,795.1638,0,867.077,0,3.572,3.02,235,20.71,20.3,120.5687,0.152,47.95,55.32,32.78,34.59
"2017-07-20 09:30:00",297622,0.691,122.2,22.7,66.34,816.6158,0,867.1443,0,3.514,3.019,240,20.71,20.24,128.7703,0.158,47.95,55.32,32.78,34.59
"2017-07-20 09:40:00",297623,0.339,13.56,23.05,66.9,579.0914,0,867.098,0,3.375,3.025,242,20.71,20.22,83.24683,0.136,47.89,55.32,32.77,34.59
"2017-07-20 09:50:00",297624,0.449,14.17,22.56,70.38,723.0048,0,867.0875,0,3.41,3.024,254,20.71,20.23,109.5146,0.148,47.95,55.26,32.78,34.57
"2017-07-20 10:00:00",297625,0.391,66.28,22.78,69.27,882.6536,0,867.0685,0,0.021,3.055,306,20.71,20.23,137.5552,0.155,47.89,55.26,32.77,34.57
"2017-07-20 10:10:00",297626,0.649,5.318,22.96,68.84,925.2355,0,867.0664,0,-1.194,3.066,243,20.74,20.23,143.052,0.154,47.89,55.32,32.77,34.59
"2017-07-20 10:20:00",297627,0.469,0.033,22.78,71.11,735.9467,0,867.1591,0,3.595,3.02,280,20.79,20.24,110.2116,0.146,47.89,55.26,32.77,34.57
"2017-07-20 10:30:00",297628,0.552,330.7,22.97,70.82,1020.744,0,867.178,0,4.196,3.014,240,20.85,20.24,161.0954,0.158,47.89,55.26,32.77,34.57
"2017-07-20 10:40:00",297629,0.277,337,23.18,69.67,918.796,0,867.058,0,3.167,3.021,225,20.83,20.24,141.3851,0.152,47.89,55.26,32.77,34.57
"2017-07-20 10:50:00",297630,0.395,306.1,23.79,67.33,965.1261,0,867.0496,0,3.4,3.017,212,20.83,20.23,148.5412,0.151,47.84,55.2,32.76,34.56
"2017-07-20 11:00:00",297631,0.453,291.9,23.51,67.74,970.5716,0,867.0559,0,4.409,3.006,237,20.89,20.22,151.3141,0.155,47.84,55.26,32.76,34.57
"2017-07-20 11:10:00",297632,0.438,345.1,24.02,66.13,908.565,0,866.8643,0,3.076,3.019,221,20.94,20.18,140.0252,0.15,47.84,55.26,32.76,34.57
"2017-07-20 11:20:00",297633,0.235,111.9,24.71,64.78,1013.876,0,866.8096,0,3.078,3.015,227,20.99,20.16,158.1292,0.155,47.79,55.26,32.74,34.57
"2017-07-20 11:30:00",297634,0.387,210.2,24.76,63.77,954.3136,0,866.7001,0,3.925,3.008,228,21.03,20.16,150.2989,0.154,47.79,55.2,32.74,34.56
"2017-07-20 11:40:00",297635,0.733,337.3,24.42,64.71,872.6661,0,866.5695,0,3.135,3.016,274,21.07,20.12,133.1722,0.149,47.73,55.2,32.73,34.56
"2017-07-20 11:50:00",297636,0.439,302.4,24.55,64.14,1054.517,0,866.5568,0,3.751,3.009,221,21.17,20.1,170.2251,0.161,47.73,55.2,32.73,34.56
"2017-07-20 12:00:00",297637,0.406,257.3,24.79,63.57,761.6263,0,866.5568,0,4.388,3.004,335,21.23,20.1,115.1212,0.145,47.73,55.2,32.73,34.56
"2017-07-20 12:10:00",297638,0.265,328,24.85,65.37,777.6249,0,866.5147,0,3.741,3.008,226,21.31,20.1,121.0612,0.148,47.68,55.2,32.71,34.56
"2017-07-20 12:20:00",297639,0.716,296.2,24.52,64.13,779.6602,0,866.3063,0,4.373,3.007,227,21.39,20.1,120.7354,0.15,47.68,55.15,32.71,34.55
"2017-07-20 12:30:00",297640,0.29,292.5,24.6,65.9,904.6832,0,866.3041,0,-3.065,3.07,200,21.44,20.11,148.9957,0.16,47.62,55.15,32.7,34.55
"2017-07-20 12:40:00",297641,0.488,276.1,25.06,63.54,834.6458,0,866.3041,0,2.742,3.018,244,21.5,20.07,132.0812,0.152,47.62,55.15,32.7,34.55
"2017-07-20 12:50:00",297642,0.433,286.8,24.71,65.1,486.1285,0,866.3041,0,4.585,3.003,233,21.6,20.09,68.13929,0.132,47.62,55.15,32.7,34.55
"2017-07-20 13:00:00",297643,0.338,223.3,24.8,65.63,595.2668,0,866.2999,0,-36.17,3.391,310,21.68,20.1,91.17565,0.138,47.57,55.09,32.69,34.53
"2017-07-20 13:10:00",297644,0.278,224.6,24.12,67.98,169.4948,0,866.2999,0,-34.25,3.379,216,21.73,20.13,19.26326,0.113,47.62,55.09,32.7,34.53
"2017-07-20 13:20:00",297645,0.274,206.8,23.38,71.29,103.072,0,866.3041,0,5.585,3,261,21.82,20.14,10.41012,0.101,47.57,55.09,32.69,34.53
"2017-07-20 13:30:00",297646,0.14,218.2,22.94,73.75,74.29638,0,866.3041,0,5.144,3.006,232,21.92,20.14,6.887042,0.092,47.57,55.09,32.69,34.53
"2017-07-20 13:40:00",297647,0.077,137.5,22.74,75.75,49.17863,0,866.3041,0,5.294,3.005,243,21.98,20.14,4.894422,0.096,47.57,55.09,32.69,34.53
"2017-07-20 13:50:00",297648,0.064,136.6,22.62,76.63,154.9694,0,866.3041,0,3.422,3.021,308,22.06,20.14,23.7637,0.142,47.57,55.09,32.69,34.53
"2017-07-20 14:00:00",297649,0.257,324,23.38,72.29,564.1771,0,866.3041,0,4.626,3.007,237,22.11,20.14,91.6757,0.16,47.52,55.09,32.67,34.53
"2017-07-20 14:10:00",297650,0.319,302.6,24.09,70.98,963.9163,0,866.3041,0,4.822,3,327,22.13,20.19,161.9973,0.168,47.52,55.03,32.67,34.52
"2017-07-20 14:20:00",297651,0.372,94.4,24.64,69.52,728.1769,0,866.3041,0,4.082,3.006,226,22.21,20.2,113.3421,0.152,47.52,55.03,32.67,34.52
"2017-07-20 14:30:00",297652,0.263,207.1,24.64,68.84,599.5881,0,866.2873,0,3.237,3.015,232,22.15,20.19,89.72324,0.141,47.46,55.03,32.66,34.52
"2017-07-20 14:40:00",297653,0.312,286.2,24.63,69.69,751.095,0,866.3021,0,3.59,3.009,245,22.17,20.17,113.4704,0.146,47.46,55.03,32.66,34.52
"2017-07-20 14:50:00",297654,0.337,73.86,24.45,69.44,315.4246,0,866.3041,0,-1.167,3.059,218,22.27,20.16,37.89021,0.115,47.46,55.03,32.66,34.52
"2017-07-20 15:00:00",297655,0.232,357.4,23.75,72.57,124.5359,0,866.3041,0,-3.313,3.085,192,22.27,20.19,10.11085,0.081,47.41,54.97,32.65,34.51
"2017-07-20 15:10:00",297656,0.211,297.9,22.84,76.09,147.4612,0,866.321,0,-2.013,3.075,204,22.3,20.23,16.9297,0.114,47.41,54.97,32.65,34.51
"2017-07-20 15:20:00",297657,0.104,330.8,22.46,79.37,84.39378,0,866.4094,0,5.583,3.004,406,22.39,20.23,8.822839,0.105,47.46,54.97,32.66,34.51
"2017-07-20 15:30:00",297658,0.137,86.5,21.83,84.4,40.72748,0,866.5863,0,5.984,3.005,258,22.41,20.23,4.784565,0.117,47.41,54.97,32.65,34.51
"2017-07-20 15:40:00",297659,0.322,131.8,20.85,98,53.21554,4,866.7801,0,5.24,3.017,217,22.42,20.27,6.87592,0.131,47.46,55.03,32.66,34.52
"2017-07-20 15:50:00",297660,0.099,97.1,20.44,100,80.87171,0,866.8096,0,4.694,3.022,235,22.51,20.32,10.98677,0.135,47.52,54.97,32.67,34.51
"2017-07-20 16:00:00",297661,0.283,175.6,20.41,100,133.4852,0,866.8096,0,3.595,3.033,259,22.57,20.28,18.2993,0.137,47.57,54.97,32.69,34.51
"2017-07-20 16:10:00",297662,0.049,62.42,20.51,100,139.0067,0,866.9001,0,4.488,3.023,261,22.56,20.33,19.19786,0.138,47.62,54.97,32.7,34.51
"2017-07-20 16:20:00",297663,0.405,146.2,20.41,100,87.93143,0,867.0244,0,-37.87,3.434,262,22.54,20.41,12.2796,0.14,47.62,54.97,32.7,34.51
"2017-07-20 16:30:00",297664,0.375,153.2,20.03,100,59.82056,0,866.9675,0,4.052,3.031,462,22.55,20.45,8.490922,0.142,47.62,54.92,32.7,34.49
"2017-07-20 16:40:00",297665,0.313,125.3,19.91,100,72.02213,0,867.0053,0,4.546,3.026,371,22.58,20.45,10.59757,0.147,47.68,54.97,32.71,34.51
"2017-07-20 16:50:00",297666,0.403,145.7,19.69,100,54.49203,0,867.0685,0,4.836,3.025,297,22.59,20.45,7.638423,0.141,47.68,54.97,32.71,34.51
"2017-07-20 17:00:00",297667,0.359,148.5,19.6,100,38.63658,0,867.0623,0,2.555,3.047,274,22.62,20.43,5.759213,0.149,47.68,54.97,32.71,34.51
"2017-07-20 17:10:00",297668,0.085,159.4,19.66,100,46.25309,0.5,867.0623,0,-0.913,3.08,237,22.63,20.46,6.839183,0.148,47.68,54.97,32.71,34.51
"2017-07-20 17:20:00",297669,0.132,145.1,19.69,100,54.56974,0,867.0496,0,4.678,3.026,278,22.64,20.54,7.839674,0.144,47.73,54.97,32.73,34.51
"2017-07-20 17:30:00",297670,0.087,185,19.75,100,82.47558,0,867.058,0,4.01,3.032,287,22.64,20.55,11.72731,0.142,47.73,54.97,32.73,34.51
"2017-07-20 17:40:00",297671,0.02,114.2,19.76,100,74.95639,0,867.0623,0,-0.336,3.074,230,22.63,20.55,9.984131,0.133,47.73,54.97,32.73,34.51
"2017-07-20 17:50:00",297672,0.123,122.1,19.72,100,65.49718,0,866.9675,0,-0.496,3.076,205,22.57,20.54,8.661719,0.132,47.79,54.97,32.74,34.51
"2017-07-20 18:00:00",297673,0.328,108.2,19.69,100,54.8037,0,866.9843,0,3.545,3.037,352,22.51,20.54,7.346842,0.134,47.79,54.97,32.74,34.51
"2017-07-20 18:10:00",297674,0.301,156.6,19.67,100,39.41455,0,866.839,0,4.315,3.03,292,22.49,20.57,5.603851,0.142,47.79,55.03,32.74,34.52
"2017-07-20 18:20:00",297675,0.203,101.8,19.58,100,27.13099,0,866.8538,0,-34.25,3.403,250,22.52,20.57,4.289178,0.159,47.79,54.97,32.74,34.51
"2017-07-20 18:30:00",297676,0.131,84.7,19.46,100,19.22888,0,866.9843,0,4.087,3.033,293,22.56,20.56,3.360978,0.176,47.84,54.97,32.76,34.51
"2017-07-20 18:40:00",297677,0.021,32.77,19.47,100,15.40555,0,867.0938,0,0.671,3.066,223,22.56,20.56,3.224656,0.21,47.84,54.97,32.76,34.51
"2017-07-20 18:50:00",297678,0.038,104.6,19.39,100,9.117495,0,867.2559,0,2.584,3.048,267,22.53,20.59,2.345528,0.266,47.84,55.03,32.76,34.52
"2017-07-20 19:00:00",297679,0.022,42.01,19.32,100,4.774902,0,867.3148,0,4.237,3.032,264,22.51,20.63,1.940087,0.423,47.79,54.97,32.74,34.51
"2017-07-20 19:10:00",297680,0.055,190.2,19.31,100,0.8960431,0,867.3738,0,4.674,3.028,250,22.48,20.65,1.383091,1.73,47.84,55.03,32.76,34.52
"2017-07-20 19:20:00",297681,0.061,55.44,19.22,100,0,0,867.3843,0,4.513,3.03,254,22.48,20.65,1.22393,0,47.84,54.97,32.76,34.51
"2017-07-20 19:30:00",297682,0.166,353.9,19.29,100,0,0,867.5633,0,3.513,3.039,258,22.44,20.67,1.246676,0,47.84,54.97,32.76,34.51
"2017-07-20 19:40:00",297683,0.15,20.09,19.33,100,0,0,867.6054,0,3.474,3.04,245,22.42,20.73,1.250474,0,47.84,54.97,32.76,34.51
"2017-07-20 19:50:00",297684,0.081,32.76,19.23,100,0,0,867.7549,0,3.393,3.041,275,22.39,20.75,1.167138,0,47.84,54.97,32.76,34.51
"2017-07-20 20:00:00",297685,0.073,25.25,19.24,100,0,0,867.7885,0,0.911,3.065,242,22.4,20.74,1.170925,0,47.84,54.97,32.76,34.51
"2017-07-20 20:10:00",297686,0.047,327.5,19.21,100,0,0,867.8202,0,3.29,3.042,303,22.33,20.74,1.136824,0,47.84,54.97,32.76,34.51
"2017-07-20 20:20:00",297687,0.012,70.84,19.22,100,0,0,867.9233,0,0.208,3.072,232,22.37,20.74,1.102714,0,47.89,54.97,32.77,34.51
"2017-07-20 20:30:00",297688,0.176,122.4,19.18,100,0,0,868.0729,0,-1.529,3.089,212,22.32,20.75,0.7768396,0,47.89,54.97,32.77,34.51
"2017-07-20 20:40:00",297689,0.288,80.3,19.24,100,0.1218359,0,868.216,0,-1.722,3.09,206,22.32,20.75,0.6593617,1.037,47.89,55.03,32.77,34.52
"2017-07-20 20:50:00",297690,0.248,110.5,19.36,100,0,0,868.3255,0,-1.998,3.092,203,22.3,20.74,0.640396,0,47.95,55.03,32.78,34.52
"2017-07-20 21:00:00",297691,0.25,113.8,19.3,100,0,0,868.3255,0,-1.822,3.091,211,22.25,20.74,0.572189,0,47.95,55.03,32.78,34.52
"2017-07-20 21:10:00",297692,0.265,125.3,19.26,100,0,0,868.3424,0,-1.925,3.092,202,22.22,20.74,0.5873359,0,47.95,55.03,32.78,34.52
"2017-07-20 21:20:00",297693,0.057,81.6,19.32,100,0,0,868.3255,0,-1.974,3.092,198,22.22,20.77,0.5342913,0,47.95,55.03,32.78,34.52
"2017-07-20 21:30:00",297694,0.003,97.2,19.37,100,0,0,868.3845,0,-1.969,3.092,197,22.18,20.78,0.6820658,0,47.95,55.03,32.78,34.52
"2017-07-20 21:40:00",297695,0.152,80.5,19.36,100,0,0,868.3445,0,-1.655,3.089,216,22.12,20.8,0.6176255,0,47.89,55.03,32.77,34.52
"2017-07-20 21:50:00",297696,0.086,74.79,19.29,100,0,0,868.3339,0,-2.02,3.093,201,22.11,20.8,0.6820338,0,47.89,55.03,32.77,34.52
"2017-07-20 22:00:00",297697,0.213,76.26,19.35,100,0,0,868.3255,0,-1.913,3.092,206,22.11,20.8,0.6820221,0,47.95,55.03,32.78,34.52
"2017-07-20 22:10:00",297698,0.372,55.69,19.35,100,0,0,868.3634,0,-1.34,3.086,214,22.03,20.8,0.6782294,0,47.95,55.03,32.78,34.52
"2017-07-20 22:20:00",297699,0.433,40.1,19.26,100,0,0,868.4855,0,-1.915,3.092,214,22.02,20.8,0.5607774,0,47.95,55.03,32.78,34.52
"2017-07-20 22:30:00",297700,0.234,23.02,19.25,100,0,0,868.5697,0,-2.015,3.093,220,22,20.8,0.5531927,0,47.95,55.03,32.78,34.52
"2017-07-20 22:40:00",297701,0.41,79.24,19.2,100,0,0,868.494,0,-1.865,3.092,214,21.95,20.78,0.4736208,0,47.95,55.09,32.78,34.53
"2017-07-20 22:50:00",297702,0.521,29.42,19.14,100,0,0,868.3402,0,-0.809,3.082,235,21.99,20.79,0.4660469,0,47.95,55.03,32.78,34.52
"2017-07-20 23:00:00",297703,0.224,44.94,19.15,100,0,0,868.3255,0,-1.51,3.089,230,21.94,20.8,0.4660491,0,48,55.03,32.8,34.52
"2017-07-20 23:10:00",297704,0.317,101.3,19.11,100,0,0,868.2771,0,-1.225,3.086,233,21.94,20.81,0.4546836,0,47.95,55.03,32.78,34.52
"2017-07-20 23:20:00",297705,0.197,42.48,19.09,100,0,0,868.2518,0,-0.48,3.079,224,21.94,20.83,0.4509019,0,47.95,55.03,32.78,34.52
"2017-07-20 23:30:00",297706,0.207,77.64,19.08,100,0,0,868.0812,0,-0.742,3.082,210,21.97,20.84,0.3410234,0,48,55.09,32.8,34.53
"2017-07-20 23:40:00",297707,0.147,70.89,19.01,100,0,0,868.0729,0,0.089,3.074,231,21.93,20.84,0.4357434,0,47.95,55.09,32.78,34.53
"2017-07-20 23:50:00",297708,0.104,40.66,19.06,100,0,0,868.0729,0,-0.122,3.076,230,21.85,20.83,0.435741,0,48,55.09,32.8,34.53
